Location: �terpigny
(49.8910°N, 2.9249°E)
Time: 06:28:51
(UTC+00:00)

Cosmos 1908 - Pass Details

Date: 07 June 2022
Orbit: 505 x 523 km, 82.5° (Epoch: 03 July)

Event Time Altitude Azimuth Distance (km) Brightness Sun altitude
Rises 22:01:34 0° 352° (N) 2,623 8.3 -13.6°
Reaches altitude 10° 22:03:43 10° 357° (N) 1,734 7.0 -13.7°
Maximum altitude 22:07:29 59° 78° (ENE) 592 3.4 -14.0°
Enters shadow 22:09:28 26° 149° (SSE) 1,044 4.1 -14.1°
